Regional Weather Roundup
Issued by NWS

Home | Current Version | Previous Version | Graphics & Text | Print | Product List | Glossary On
Versions: 1 2 3 4 5 6 7 8 9 10 11 12 13 14 15 16 17 18 19 20 21 22 23 24 25 26 27 28 29 30 31 32 33 34 35 36 37 38 39 40 41 42 43 44 45 46 47 48 49 50
000
ASUS45 KSLC 210710
RWRUT

UTAH REGIONAL WEATHER ROUNDUP
NATIONAL WEATHER SERVICE SALT LAKE CITY UT
100 AM MDT THU AUG 21 2014

UTZ001>011-023>025-210800-

NORTHERN UTAH

CITY           SKY/WX    TMP DP  RH WIND       PRES   REMARKS
HILL AFB       CLOUDY    61  52  72 E17G26    30.04S
LOGAN          LGT RAIN  63  53  70 SE14      30.02F
OGDEN          CLOUDY    64  52  64 CALM      30.02S
PROVO AIRPORT  MOCLDY    64  55  72 NW6       30.07S
SALT LAKE CITY CLOUDY    67  52  58 SE13      30.00F
VERNAL         MOCLDY    62  50  64 NW6       30.12R
WENDOVER       CLOUDY    72  46  40 CALM      29.99R
HEBER CITY     MOCLDY    55  50  82 CALM      30.14S
WEST JORDAN    PTCLDY    63  59  88 SW10      30.05F

$$

UTZ012>022-026-027-210800-

SOUTHERN UTAH

CITY           SKY/WX    TMP DP  RH WIND       PRES   REMARKS
BRYCE CANYON   PTCLDY    44  42  93 CALM      30.28S
CEDAR CITY     CLEAR     60  44  55 S6        30.14S
MILFORD        CLEAR     63  48  58 SW13      30.08R
MOAB/CYNLANDS  CLEAR     62  55  77 CALM      30.06R
PRICE          CLEAR     57  49  74 N9        30.14R
ST GEORGE      PTSUNNY   72  52  49 NE3       30.01R
KANAB            N/A     57  50  77 N8        30.17R

$$

REGIONAL REPORTS     COLORADO/ARIZONA

CITY           SKY/WX    TMP DP  RH WIND       PRES   REMARKS
CRAIG, CO      PTCLDY    57  50  77 VRB3      30.17R
GRAND JUNCTION PTCLDY    60  52  74 CALM      30.09R
RIFLE          CLOUDY    61  50  67 E6        30.13S
MONTROSE       PTCLDY    65  48  54 S10       30.16R
CORTEZ         CLEAR     53  46  77 NE5       30.18R
PAGE, AZ       PTCLDY    70  48  45 SW3       30.08R
GRAND CANYON     N/A    N/A N/A N/A MISG        N/A
KINGMAN        CLOUDY    74  51  44 SE9       30.02S
FLAGSTAFF      PTCLDY    50  46  86 CALM      30.28S

$$

REGIONAL REPORTS    NEVADA/IDAHO/WYOMING

CITY           SKY/WX    TMP DP  RH WIND       PRES   REMARKS
LAS VEGAS, NV  CLEAR     80  53  39 S9        29.88R
ELY            PTCLDY    58  44  60 SW12      30.13R
ELKO           CLOUDY    71  39  31 SE7       29.96S
POCATELLO, ID  LGT RAIN  61  55  81 SW9       30.04R
BURLEY         LGT RAIN  61  55  81 SE8       29.97R
EVANSTON, WY   LGT RAIN  51  49  92 CALM      30.24F
ROCK SPRINGS   CLOUDY    51  46  83 NW17G28   30.21R

$$



USA.gov is the U.S. government's official web portal to all federal, state and local government web resources and services.